This is the latest recevied weather packets stored in our database for station/object KQ4PPF. If no packets are shown the sender has not sent any weather packets the latest 10 day(s).
| Time | Temp. | Humidity | Pressure | Rain* | Wind** | Luminosity | Snow |
|---|---|---|---|---|---|---|---|
| 1778013970 | 24.44° C | 43% | 1011.4 hPa | 0 mm | - | 107 W/m² | - |
| 1778013667 | 24.44° C | 43% | 1011.4 hPa | 0 mm | - | 120 W/m² | - |
| 1778013364 | 25° C | 45% | 1011.3 hPa | 0 mm | - | 131 W/m² | - |
| 1778013061 | 25° C | 46% | 1011.3 hPa | 0 mm | - | 135 W/m² | - |
| 1778012756 | 25° C | 44% | 1011.4 hPa | 0 mm | - | 131 W/m² | - |
| 1778012453 | 25° C | 43% | 1011.6 hPa | 0 mm | - | 136 W/m² | - |
| 1778012150 | 25° C | 43% | 1011.6 hPa | 0 mm | - | 146 W/m² | - |
| 1778011848 | 25.56° C | 43% | 1011.8 hPa | 0 mm | - | 108 W/m² | - |
| 1778011545 | 25.56° C | 43% | 1011.9 hPa | 0 mm | - | 99 W/m² | - |
| 1778011242 | 25.56° C | 41% | 1011.8 hPa | 0 mm | - | 60 W/m² | - |
| 1778010933 | 25.56° C | 44% | 1012.2 hPa | 0 mm | - | 82 W/m² | - |
| 1778010630 | 25.56° C | 45% | 1011.7 hPa | 0 mm | - | 63 W/m² | - |
| 1778010327 | 25.56° C | 45% | 1011.7 hPa | 0 mm | - | 79 W/m² | - |
| 1778010022 | 25.56° C | 45% | 1011.9 hPa | 0 mm | - | 109 W/m² | - |
| 1778009720 | 25.56° C | 44% | 1012 hPa | 0 mm | - | 131 W/m² | - |
| 1778009417 | 25° C | 46% | 1012.4 hPa | 0 mm | - | 153 W/m² | - |
| 1778009115 | 25° C | 44% | 1012.5 hPa | 0 mm | - | 170 W/m² | - |
| 1778008812 | 24.44° C | 44% | 1012.5 hPa | 0 mm | - | 165 W/m² | - |
| 1778008505 | 25° C | 42% | 1012.2 hPa | 0 mm | - | 128 W/m² | - |
| 1778008203 | 25.56° C | 40% | 1012.4 hPa | 0 mm | - | 90 W/m² | - |
| 1778007897 | 25° C | 44% | 1012.4 hPa | 0 mm | - | 97 W/m² | - |
| 1778007592 | 25° C | 44% | 1012.4 hPa | 0 mm | - | 117 W/m² | - |
| 1778007290 | 25° C | 46% | 1012.5 hPa | 0 mm | - | 108 W/m² | - |
| 1778006986 | 25° C | 46% | 1012.2 hPa | 0 mm | - | 91 W/m² | - |
| 1778006683 | 25.56° C | 44% | 1012.5 hPa | 0 mm | - | 104 W/m² | - |
* Rain latest hour (hover to see other rain measurements)
** Current wind speed in m/s (hover to see current wind gust speed)